Vorticity
2 4 5 3 6 5 7 5 -1 -11 -6 -1 10 43 46 45 42 25 20 16 11 6 4 4 3 3 2 2 3 4 6 9 5 7 9 9 -5 -4 30 19 13 9 4 9
4 10 17 20 20 10 10 16 13 21 26 60 3 8 2 14 14 12 11 7 8 6 4 4 5 6 7 9 10 5 2 8 8 3 -2 14 19 19 23 18 18 12 11 7
20 20 12 47 50 50 25 13 20 9 4 5 11 19 14 14 10 9 5 7 9 12 9 6 2 -8 -4 7 10 9 9 4 7 12 20 24 19 20 18 15 16 19 18 18
5 20 35 37 26 13 -2 -6 -0 18 26 22 9 5 8 6 7 8 7 4 3 3 1 -4 -2 1 8 9 7 10 10 9 20 21 16 15 17 20 20 17 16 16 19 20
-8 11 -26 10 51 45 40 19 14 6 0 2 3 -2 1 -0 6 9 -5 -8 1 0 -2 6 7 3 10 18 15 16 18 19 20 14 12 15 17 15 12 14 15 14 16 17
18 2 -3 1 -7 -9 -12 11 10 12 11 15 7 8 1 -6 -2 -4 9 2 2 15 11 13 15 23 20 19 15 15 14 16 16 16 15 14 12 16 14 7 9 12 14 16
9 -8 11 10 7 16 42 31 4 1 -8 -23 -14 -12 -0 6 12 8 10 4 11 15 15 19 23 22 22 22 24 18 12 12 12 12 10 7 8 7 11 16 10 9 13 7
24 19 32 19 10 -24 -28 -20 10 5 7 11 -4 0 13 14 7 11 14 9 18 14 17 19 20 14 9 10 12 11 12 11 14 13 11 15 11 3 3 7 13 10 10 13
-7 -33 -54 -49 -23 -3 -3 -7 4 4 3 3 10 19 20 13 15 12 8 21 7 21 16 11 7 10 8 6 3 5 4 1 1 2 4 9 12 20 11 4 7 7 12 13
16 11 21 -5 9 18 24 28 32 29 26 19 18 21 24 27 21 16 27 19 10 8 6 9 9 9 8 6 5 6 6 6 4 4 6 8 7 6 11 18 12 5 7 8
23 14 16 19 26 9 14 14 16 17 10 9 20 16 10 31 31 29 6 5 4 3 3 3 4 4 3 4 7 7 6 6 4 4 7 7 6 10 13 10 12 13 9 6
10 11 26 3 13 12 17 27 30 14 19 25 39 30 20 -1 -1 2 2 5 6 3 5 5 3 3 3 6 14 14 14 13 13 11 10 8 11 10 4 12 13 15 11 9
20 26 -0 2 2 -3 3 10 21 29 21 8 3 3 2 2 3 2 4 1 4 6 6 8 9 10 12 14 20 18 16 13 12 12 14 16 14 15 25 8 11 11 14 11
1 -1 11 6 9 13 -13 5 -5 -5 1 0 2 2 3 5 5 8 10 10 7 8 9 8 7 6 13 17 18 19 14 13 10 10 7 9 10 15 20 29 21 12 9 14
12 6 4 4 9 7 0 -7 -3 3 -0 -2 22 3 8 2 5 7 6 4 7 10 13 9 8 3 9 13 14 11 8 12 9 7 5 11 14 18 19 17 17 19 13 12
10 15 20 4 4 3 5 4 -2 15 17 20 15 13 10 11 12 15 18 15 11 18 17 11 9 12 9 10 8 8 10 7 8 7 7 18 17 15 15 13 15 16 17 14
17 8 6 -1 1 4 5 11 21 8 8 10 10 11 12 11 12 13 15 15 11 11 15 17 19 16 16 13 10 8 12 7 4 7 13 18 15 16 13 9 15 20 20 14
4 -3 -6 -2 9 20 10 10 14 16 19 18 18 20 22 18 14 11 16 8 9 12 16 19 23 24 20 19 13 12 10 6 2 12 14 20 14 13 14 14 16 23 22 12
6 8 4 15 9 16 13 14 9 19 13 10 8 9 10 14 19 20 18 12 10 10 8 7 10 11 13 11 9 7 6 6 14 15 22 20 16 14 19 18 20 22 14 11
9 20 14 22 25 21 18 16 20 14 5 5 4 7 11 8 8 11 14 12 13 7 4 6 11 12 9 7 7 7 12 16 20 25 21 17 21 19 18 17 18 15 10 8
8 12 10 6 7 6 5 4 5 5 4 4 4 6 9 10 9 8 7 7 9 6 8 12 14 13 11 8 10 21 20 28 24 19 17 9 10 18 22 20 16 9 12 16
13 3 -3 7 12 11 14 15 14 12 12 11 12 13 13 14 13 12 11 9 7 8 11 10 9 14 15 18 17 25 22 18 11 2 16 23 19 16 17 17 16 19 19 24
6 4 16 14 24 19 15 17 20 21 21 23 24 23 21 22 24 24 23 20 16 15 14 16 19 18 18 20 25 19 14 1 20 18 18 23 30 32 27 24 25 26 26 22
16 11 21 17 15 23 27 31 28 24 19 17 17 21 20 19 13 12 14 18 19 17 17 16 18 20 24 20 15 2 25 16 19 29 36 28 26 26 25 21 21 19 19 20
11 19 15 22 24 22 22 21 20 17 18 18 22 20 15 16 18 19 21 21 20 20 21 22 23 22 17 10 15 20 18 21 35 29 24 24 25 23 21 21 20 19 18 18
16 16 19 20 20 17 16 17 18 19 14 18 22 21 17 16 18 20 19 20 22 22 22 22 20 17 1 22 20 15 17 19 23 29 22 21 20 20 21 24 27 29 28 22
13 14 17 15 17 18 15 13 14 16 16 16 18 20 18 17 18 17 18 18 19 21 20 15 13 6 19 18 12 11 11 12 13 16 22 21 18 15 13 11 9 6 5 6
Height
3101 3100 3099 3095 3094 3094 3090 3087 3086 3058 3069 3067 3068 3064 3060 3057 3055 3054 3054 3052 3050 3048 3046 3044 3041 3038 3035 3032 3030 3027 3024 3022 3018 3015 3012 3009 3004 3000 2996 2993 2991 2988 2987 2986
3089 3092 3090 3082 3081 3078 3076 3073 3069 3063 3052 3062 3058 3056 3053 3050 3049 3047 3047 3046 3044 3041 3038 3036 3033 3030 3027 3023 3020 3016 3012 3008 3004 3000 2997 2995 2991 2986 2982 2979 2976 2974 2972 2971
3080 3082 3080 3070 3065 3065 3063 3063 3063 3058 3056 3052 3049 3047 3046 3044 3044 3042 3040 3038 3036 3035 3030 3028 3024 3021 3018 3013 3009 3005 3000 2995 2992 2987 2983 2979 2975 2972 2969 2965 2962 2960 2958 2956
3079 3080 3075 3061 3059 3059 3059 3058 3057 3054 3051 3047 3041 3041 3040 3037 3037 3035 3033 3030 3027 3025 3022 3018 3015 3011 3005 3000 2996 2992 2987 2982 2978 2974 2971 2967 2964 2960 2957 2954 2950 2947 2945 2944
3077 3073 3062 3056 3057 3055 3052 3051 3049 3047 3044 3041 3037 3033 3033 3032 3028 3026 3024 3020 3017 3014 3011 3007 3003 2999 2993 2988 2983 2979 2975 2971 2968 2964 2960 2957 2953 2950 2947 2942 2940 2937 2935 2932
3074 3072 3063 3054 3054 3052 3049 3045 3040 3039 3037 3034 3030 3023 3022 3024 3021 3017 3014 3011 3006 3002 2998 2994 2991 2986 2982 2977 2972 2968 2964 2961 2958 2955 2951 2947 2943 2940 2937 2934 2930 2927 2925 2922
3067 3063 3054 3048 3047 3046 3045 3043 3036 3033 3030 3025 3020 3019 3013 3012 3010 3008 3003 2999 2996 2990 2984 2981 2978 2974 2970 2967 2964 2959 2955 2952 2949 2947 2943 2939 2935 2933 2928 2924 2922 2919 2915 2913
3062 3059 3052 3043 3043 3044 3039 3032 3027 3024 3021 3016 3012 3006 3002 3000 2997 2995 2991 2987 2983 2978 2974 2972 2969 2964 2961 2958 2954 2951 2947 2944 2941 2938 2934 2930 2926 2924 2920 2916 2912 2909 2905 2903
3054 3047 3045 3041 3035 3033 3028 3022 3017 3011 3007 3004 2999 2995 2992 2987 2984 2983 2980 2977 2974 2969 2965 2963 2960 2956 2952 2950 2946 2943 2939 2936 2932 2929 2926 2922 2917 2913 2910 2907 2902 2899 2895 2892
3042 3033 3033 3028 3027 3024 3019 3013 3006 3002 2997 2991 2985 2981 2976 2973 2971 2970 2970 2967 2964 2961 2957 2954 2952 2949 2945 2941 2937 2933 2929 2926 2923 2919 2916 2912 2908 2903 2899 2896 2892 2889 2886 2882
3025 3023 3019 3018 3014 3011 3005 3000 2995 2991 2987 2982 2976 2971 2967 2963 2961 2961 2961 2959 2956 2953 2950 2946 2943 2939 2936 2931 2926 2921 2917 2914 2911 2907 2904 2900 2897 2893 2888 2886 2881 2878 2876 2872
3013 3014 3010 3006 3005 3002 2996 2989 2983 2979 2975 2973 2968 2964 2961 2958 2957 2955 2953 2951 2948 2944 2940 2936 2932 2928 2924 2920 2914 2908 2903 2900 2897 2893 2890 2885 2881 2878 2877 2873 2871 2867 2865 2862
3009 3006 3003 3001 2999 2996 2989 2984 2978 2974 2971 2966 2963 2960 2956 2953 2951 2948 2945 2942 2938 2933 2929 2925 2921 2916 2913 2908 2901 2895 2891 2887 2884 2881 2877 2872 2868 2862 2857 2858 2855 2855 2852 2850
3005 3001 2997 2995 2991 2988 2984 2980 2975 2971 2968 2964 2960 2955 2952 2948 2944 2940 2936 2932 2928 2923 2918 2914 2909 2905 2902 2895 2889 2884 2881 2877 2872 2869 2865 2860 2855 2850 2845 2841 2838 2838 2839 2838
2998 2994 2990 2987 2984 2980 2976 2971 2966 2962 2958 2954 2950 2945 2941 2936 2932 2928 2923 2919 2915 2910 2906 2903 2898 2894 2891 2884 2878 2874 2870 2866 2862 2858 2853 2848 2843 2837 2833 2830 2827 2824 2823 2825
2989 2986 2982 2979 2975 2970 2966 2962 2956 2951 2946 2941 2937 2933 2928 2923 2918 2914 2910 2907 2901 2896 2893 2889 2885 2882 2877 2873 2868 2863 2860 2856 2851 2846 2840 2835 2831 2826 2822 2818 2815 2812 2811 2812
2980 2976 2974 2968 2964 2959 2955 2950 2944 2939 2934 2929 2924 2919 2914 2910 2905 2901 2898 2894 2889 2884 2880 2876 2870 2868 2864 2861 2856 2852 2847 2844 2840 2835 2829 2823 2818 2814 2811 2807 2804 2801 2800 2802
2973 2968 2963 2959 2953 2947 2942 2938 2932 2927 2921 2916 2911 2906 2901 2896 2891 2887 2884 2881 2876 2873 2870 2865 2859 2855 2851 2849 2845 2840 2836 2831 2827 2821 2815 2810 2806 2802 2799 2796 2792 2790 2790 2791
2965 2960 2955 2949 2943 2935 2929 2924 2920 2915 2910 2905 2900 2895 2890 2885 2880 2875 2872 2868 2865 2860 2859 2855 2850 2845 2841 2838 2833 2828 2824 2819 2813 2807 2802 2797 2793 2790 2787 2784 2782 2781 2781 2781
2953 2949 2942 2936 2931 2925 2918 2913 2908 2903 2899 2895 2889 2884 2879 2875 2871 2865 2861 2856 2855 2852 2847 2843 2839 2835 2831 2827 2823 2817 2812 2805 2799 2793 2789 2785 2782 2778 2776 2774 2773 2772 2772 2771
2942 2936 2930 2925 2918 2912 2907 2902 2895 2890 2886 2882 2876 2871 2866 2862 2859 2855 2849 2844 2845 2842 2836 2831 2828 2824 2820 2815 2810 2805 2799 2793 2787 2783 2779 2775 2772 2769 2766 2765 2764 2763 2763 2762
2931 2925 2918 2911 2904 2897 2893 2887 2882 2876 2871 2866 2861 2857 2852 2847 2844 2841 2839 2834 2830 2828 2824 2821 2818 2814 2808 2803 2798 2793 2788 2784 2779 2774 2770 2765 2762 2760 2758 2757 2756 2755 2755 2755
2920 2913 2905 2897 2889 2881 2876 2871 2866 2861 2856 2852 2847 2843 2838 2834 2831 2825 2822 2824 2819 2817 2813 2810 2807 2803 2799 2794 2790 2785 2781 2777 2771 2766 2761 2757 2753 2751 2750 2750 2750 2750 2751 2752
2907 2900 2892 2884 2877 2869 2862 2858 2853 2849 2845 2840 2837 2833 2829 2824 2821 2820 2815 2812 2809 2806 2803 2801 2798 2795 2791 2788 2785 2781 2776 2770 2765 2759 2754 2751 2749 2748 2748 2748 2749 2749 2750 2751
2895 2887 2880 2872 2864 2858 2852 2847 2842 2839 2834 2830 2827 2824 2821 2818 2813 2810 2808 2804 2801 2799 2797 2795 2792 2790 2788 2786 2782 2778 2773 2768 2761 2757 2754 2752 2751 2750 2750 2750 2751 2751 2753 2754
2883 2876 2869 2863 2857 2851 2845 2839 2834 2830 2826 2821 2818 2816 2813 2811 2808 2805 2802 2799 2796 2794 2792 2791 2789 2788 2787 2784 2781 2778 2775 2770 2765 2760 2758 2756 2755 2755 2755 2755 2756 2757 2759 2761
2873 2866 2859 2853 2849 2844 2839 2834 2829 2825 2821 2817 2813 2811 2808 2806 2804 2801 2798 2796 2794 2792 2791 2790 2789 2788 2786 2785 2783 2781 2778 2775 2772 2768 2766 2764 2764 2764 2765 2765 2766 2767 2769 2770